Location: Bogis-Bossey
(46.3500°N, 6.1667°E)
Time: 17:03:23
(UTC+00:00)

Spot 4 - Pass Details

Date: 17 August 2022
Orbit: 703 x 723 km, 98.3° (Epoch: 01 October)

Event Time Altitude Azimuth Distance (km) Brightness Sun altitude
Exits shadow 22:12:40 47° 51° (NE) 961 4.5 -27.4°
Drops below altitude 10° 22:16:54 10° 357° (N) 2,224 7.3 -27.6°
Sets 22:19:14 0° 352° (N) 3,148 8.4 -27.8°
